Ortonville, MN

8:20 AM CDT on March 28, 2017 (GMT -0500)
Ortonville Municipal-Martinson

Weather History for KVVV - January, 2014

Change the Weather History Date:

Friday, January 24, 2014

  Actual Average (KAQP) Record (KAQP)
Temperature  
Mean Temperature 28 °F -  
Max Temperature 37 °F 17 °F 37 °F (2014)
Min Temperature 19 °F 2 °F -20 °F (2009)
Degree Days  
Heating Degree Days 37    
Moisture  
Dew Point 21 °F    
Average Humidity 72    
Maximum Humidity 87    
Minimum Humidity 46    
Precipitation  
Precipitation 0.00 in - - ()
Sea Level Pressure  
Sea Level Pressure 29.70 in    
Wind  
Wind Speed 13 mph (WNW)    
Max Wind Speed 33 mph    
Max Gust Speed 39 mph    
Visibility 9 miles    
Events Rain , Snow    
Averages and records for this station are not official NWS values.
T = Trace of Precipitation, MM = Missing Value Source: NWS Daily Summary

Daily Weather History Graph

Daily Weather History Graph

Search for Another Location

Airport or City:

Trip Planner

Search our weather history database for the weather conditions in past years. The results will help you decide how hot, cold, wet, or windy it might be!

Date:

Astronomy

Jan. 24, 2014 Rise Set
Actual Time 7:54 AM CST 5:21 PM CST
Civil Twilight 7:22 AM CST 5:53 PM CST
Nautical Twilight 6:46 AM CST 6:29 PM CST
Astronomical Twilight 6:11 AM CST 7:04 PM CST
Moon 1:19 AM CST (1/24) 11:43 AM CST (1/24)
Length of Visible Light 10h 31m
Length of Day
9h 26m
Last Quarter, 44% of the Moon is Illuminated
Jan 24
Last Quarter
Jan 30
New
Feb 6
First Quarter
Feb 14
Full
Feb 22
Last Quarter

Hourly Weather History & Observations

Time (CST) Temp. Windchill Dew Point Humidity Pressure Visibility Wind Dir Wind Speed Gust Speed Precip Events Conditions
12:12 AM 19.4 °F 10.4 °F 3.2 °F 49% 29.96 in 10.0 mi SW 6.9 mph 17.3 mph N/A   Overcast
12:34 AM 21.2 °F 7.8 °F 3.2 °F 46% 29.92 in 10.0 mi SW 15.0 mph 20.7 mph N/A   Overcast
12:54 AM 21.2 °F 8.9 °F 5.0 °F 50% 29.91 in 10.0 mi SW 12.7 mph 24.2 mph N/A   Overcast
1:14 AM 21.2 °F 9.5 °F 6.8 °F 54% 29.89 in 10.0 mi SW 11.5 mph 20.7 mph N/A   Overcast
1:34 AM 21.2 °F 9.5 °F 6.8 °F 54% 29.87 in 10.0 mi SW 11.5 mph 24.2 mph N/A   Overcast
1:54 AM 23.0 °F 10.6 °F 6.8 °F 50% 29.86 in 10.0 mi WSW 13.8 mph 21.9 mph N/A   Overcast
2:14 AM 23.0 °F 9.6 °F 8.6 °F 54% 29.84 in 10.0 mi WSW 16.1 mph 23.0 mph N/A   Overcast
2:34 AM 24.8 °F 11.9 °F 8.6 °F 50% 29.83 in 10.0 mi WSW 16.1 mph 24.2 mph N/A   Overcast
2:54 AM 24.8 °F 12.9 °F 10.4 °F 54% 29.82 in 10.0 mi WSW 13.8 mph 20.7 mph N/A   Overcast
3:14 AM 24.8 °F 12.4 °F 10.4 °F 54% 29.82 in 10.0 mi West 15.0 mph - N/A   Overcast
3:34 AM 26.6 °F 14.7 °F 12.2 °F 55% 29.81 in 10.0 mi West 15.0 mph 21.9 mph N/A   Overcast
3:54 AM 26.6 °F 18.2 °F 12.2 °F 55% 29.81 in 10.0 mi West 8.1 mph 18.4 mph N/A   Overcast
4:14 AM 26.6 °F 16.2 °F 12.2 °F 55% 29.80 in 10.0 mi West 11.5 mph 17.3 mph N/A   Overcast
4:34 AM 26.6 °F 16.8 °F 14.0 °F 59% 29.80 in 10.0 mi West 10.4 mph - N/A   Overcast
4:54 AM 26.6 °F 16.8 °F 14.0 °F 59% 29.79 in 10.0 mi West 10.4 mph - N/A   Mostly Cloudy
5:14 AM 26.6 °F 16.8 °F 15.8 °F 64% 29.78 in 10.0 mi West 10.4 mph - N/A   Mostly Cloudy
5:34 AM 26.6 °F 16.8 °F 15.8 °F 64% 29.77 in 10.0 mi West 10.4 mph - N/A   Overcast
5:54 AM 28.4 °F 18.5 °F 17.6 °F 64% 29.77 in 10.0 mi West 11.5 mph - N/A   Overcast
6:14 AM 28.4 °F 19.7 °F 17.6 °F 64% 29.77 in 10.0 mi West 9.2 mph - N/A   Overcast
6:34 AM 28.4 °F 21.2 °F 17.6 °F 64% 29.77 in 10.0 mi West 6.9 mph - N/A   Overcast
6:54 AM 26.6 °F 17.5 °F 17.6 °F 69% 29.77 in 10.0 mi WNW 9.2 mph - N/A   Mostly Cloudy
7:14 AM 26.6 °F 16.8 °F 17.6 °F 69% 29.76 in 10.0 mi WNW 10.4 mph - N/A   Clear
7:34 AM 26.6 °F 17.5 °F 17.6 °F 69% 29.76 in 10.0 mi WNW 9.2 mph - N/A   Clear
7:54 AM 24.8 °F 15.3 °F 17.6 °F 74% 29.76 in 10.0 mi WNW 9.2 mph - N/A   Clear
8:14 AM 24.8 °F 15.3 °F 17.6 °F 74% 29.76 in 10.0 mi WNW 9.2 mph - N/A   Clear
8:34 AM 26.6 °F 19.1 °F 19.4 °F 74% 29.75 in 10.0 mi WNW 6.9 mph - N/A   Clear
8:54 AM 26.6 °F 17.5 °F 19.4 °F 74% 29.75 in 10.0 mi WNW 9.2 mph - N/A   Clear
9:14 AM 26.6 °F 16.8 °F 21.2 °F 80% 29.73 in 10.0 mi WNW 10.4 mph - N/A   Clear
9:33 AM 26.6 °F 16.8 °F 21.2 °F 80% 29.73 in 10.0 mi WNW 10.4 mph - N/A   Clear
9:54 AM 28.4 °F 19.1 °F 21.2 °F 74% 29.72 in 10.0 mi West 10.4 mph - N/A   Clear
10:14 AM 28.4 °F 18.5 °F 21.2 °F 74% 29.71 in 10.0 mi West 11.5 mph - N/A   Clear
10:33 AM 30.2 °F 20.2 °F 23.0 °F 75% 29.70 in 10.0 mi West 12.7 mph - N/A   Clear
10:54 AM 30.2 °F 20.2 °F 24.8 °F 80% 29.70 in 10.0 mi West 12.7 mph 18.4 mph N/A   Clear
11:14 AM 32.0 °F 23.0 °F 24.8 °F 75% 29.69 in 10.0 mi West 11.5 mph 18.4 mph N/A   Scattered Clouds
11:33 AM 33.8 °F 25.3 °F 24.8 °F 70% 29.69 in 10.0 mi West 11.5 mph - N/A   Scattered Clouds
11:54 AM 33.8 °F 24.3 °F 26.6 °F 75% 29.67 in 10.0 mi WNW 13.8 mph 19.6 mph N/A   Scattered Clouds
12:14 PM 33.8 °F 24.8 °F 26.6 °F 75% 29.65 in 10.0 mi WNW 12.7 mph 19.6 mph N/A   Scattered Clouds
12:34 PM 35.6 °F 26.2 °F 26.6 °F 70% 29.64 in 10.0 mi WNW 15.0 mph - N/A   Scattered Clouds
12:54 PM 35.6 °F 25.9 °F 26.6 °F 70% 29.62 in 10.0 mi WNW 16.1 mph 20.7 mph N/A   Scattered Clouds
1:14 PM 35.6 °F 24.8 °F 26.6 °F 70% 29.60 in 10.0 mi WNW 19.6 mph 25.3 mph N/A   Mostly Cloudy
1:34 PM 35.6 °F 25.5 °F 28.4 °F 75% 29.60 in 10.0 mi WNW 17.3 mph 23.0 mph N/A   Mostly Cloudy
1:54 PM 35.6 °F 28.0 °F 28.4 °F 75% 29.57 in 10.0 mi WNW 10.4 mph - N/A   Mostly Cloudy
2:14 PM 35.6 °F 27.1 °F 28.4 °F 75% 29.55 in 10.0 mi WNW 12.7 mph 18.4 mph N/A   Mostly Cloudy
2:34 PM 37.4 °F 27.5 °F 30.2 °F 75% 29.53 in 10.0 mi West 18.4 mph 23.0 mph N/A   Mostly Cloudy
2:54 PM 35.6 °F 25.9 °F 30.2 °F 81% 29.55 in 10.0 mi WNW 16.1 mph 23.0 mph N/A   Overcast
3:14 PM 35.6 °F 25.9 °F 30.2 °F 81% 29.56 in 10.0 mi WNW 16.1 mph 25.3 mph N/A   Light Drizzle
3:34 PM 35.6 °F 26.2 °F 30.2 °F 81% 29.56 in 2.0 mi WNW 15.0 mph 23.0 mph N/A   Drizzle
3:54 PM 35.6 °F 25.5 °F 30.2 °F 81% 29.54 in 3.0 mi WNW 17.3 mph 23.0 mph N/A   Light Drizzle
4:14 PM 35.6 °F 26.6 °F 30.2 °F 81% 29.54 in 10.0 mi WNW 13.8 mph - N/A   Overcast
4:34 PM 35.6 °F 25.9 °F 30.2 °F 81% 29.54 in 10.0 mi WNW 16.1 mph 23.0 mph N/A   Overcast
4:54 PM 35.6 °F 26.2 °F 30.2 °F 81% 29.55 in 10.0 mi WNW 15.0 mph 21.9 mph N/A   Overcast
5:14 PM 35.6 °F 25.9 °F 30.2 °F 81% 29.55 in 10.0 mi NW 16.1 mph 25.3 mph N/A   Overcast
5:34 PM 35.6 °F 25.2 °F 30.2 °F 81% 29.56 in 10.0 mi NW 18.4 mph 23.0 mph N/A   Overcast
5:54 PM 35.6 °F 25.9 °F 30.2 °F 81% 29.57 in 7.0 mi NW 16.1 mph 23.0 mph N/A   Overcast
6:14 PM 35.6 °F 25.9 °F 30.2 °F 81% 29.58 in 7.0 mi NW 16.1 mph 25.3 mph N/A   Overcast
6:33 PM 35.6 °F 25.5 °F 30.2 °F 81% 29.59 in 10.0 mi NNW 17.3 mph 26.5 mph N/A   Overcast
6:54 PM 33.8 °F 21.6 °F 30.2 °F 87% 29.61 in 10.0 mi NNW 23.0 mph 26.5 mph N/A   Overcast
7:14 PM 33.8 °F 22.5 °F 28.4 °F 81% 29.62 in 5.0 mi North 19.6 mph 26.5 mph N/A Snow Light Snow
7:31 PM 33.8 °F 23.9 °F 28.4 °F 81% 29.62 in 5.0 mi NNW 15.0 mph 19.6 mph N/A Snow Light Snow
7:54 PM 33.8 °F 23.9 °F 28.4 °F 81% 29.62 in 7.0 mi NW 15.0 mph 24.2 mph N/A Snow Light Snow
8:14 PM 33.8 °F 23.9 °F 28.4 °F 81% 29.62 in 10.0 mi NW 15.0 mph - N/A   Overcast
8:34 PM 33.8 °F 24.8 °F 30.2 °F 87% 29.63 in 10.0 mi NW 12.7 mph - N/A Rain Light Rain
8:54 PM 33.8 °F 24.3 °F 30.2 °F 87% 29.63 in 10.0 mi NW 13.8 mph 21.9 mph N/A   Mostly Cloudy
9:14 PM 30.2 °F 16.2 °F 26.6 °F 86% 29.66 in 1.2 mi North 25.3 mph 36.8 mph N/A Snow Light Snow
9:34 PM 28.4 °F 12.3 °F 23.0 °F 80% 29.67 in 7.0 mi North 32.2 mph 38.0 mph N/A   Overcast
9:54 PM 26.6 °F 9.6 °F 21.2 °F 80% 29.70 in 2.0 mi North 33.4 mph 38.0 mph N/A Snow Light Snow
10:13 PM 24.8 °F 8.4 °F 21.2 °F 86% 29.71 in 2.0 mi North 27.6 mph 38.0 mph N/A   Overcast
10:34 PM 23.0 °F 7.6 °F 17.6 °F 80% 29.74 in 4.0 mi North 21.9 mph 36.8 mph N/A Snow Light Snow
10:54 PM 21.2 °F 3.5 °F 15.8 °F 80% 29.74 in 2.5 mi North 27.6 mph 35.7 mph N/A Snow Light Snow
11:13 PM 21.2 °F 3.0 °F 12.2 °F 68% 29.76 in 1.8 mi North 29.9 mph 39.1 mph N/A Snow Light Snow
11:34 PM 19.4 °F 1.8 °F 12.2 °F 74% 29.77 in 4.0 mi North 25.3 mph 32.2 mph N/A Snow Light Snow
11:54 PM 19.4 °F 1.1 °F 12.2 °F 74% 29.78 in 4.0 mi North 27.6 mph 34.5 mph N/A   Haze